• In Deutschland
  • Länderverzeichnis
  • Für 7 Tage
  • Wassertemperatur
  • Satellitenkarten
  • Wetterkarte
  • Widgets
  • user-avatar
    Anmelden

    Stündliche Wetter Missão Velha

    Heute, 24 November, Freitag

    Zeit Temperatur Niederschläge Wind Luftdruck Luftfeuchtigkeit
    00:00 +29°C° 0,1 mm 4 m/S 728 mmHg 59%
    01:00 +28°C° 0,1 mm 3 m/S 728 mmHg 63%
    02:00 +28°C° 0,1 mm 3 m/S 728 mmHg 68%
    03:00 +27°C° 0 mm 2 m/S 728 mmHg 72%
    04:00 +27°C° 0,1 mm 2 m/S 728 mmHg 73%
    05:00 +27°C° 0,1 mm 2 m/S 728 mmHg 73%
    06:00 +27°C° 0,1 mm 2 m/S 729 mmHg 74%
    07:00 +29°C° 0 mm 3 m/S 729 mmHg 66%
    08:00 +30°C° 0 mm 3 m/S 729 mmHg 58%
    09:00 +33°C° 0 mm 3 m/S 730 mmHg 49%
    10:00 +34°C° 0,1 mm 3 m/S 729 mmHg 45%
    11:00 +35°C° 0,1 mm 3 m/S 729 mmHg 41%
    12:00 +37°C° 0,1 mm 3 m/S 729 mmHg 37%
    13:00 +36°C° 0,4 mm 3 m/S 728 mmHg 40%
    14:00 +35°C° 0,4 mm 2 m/S 728 mmHg 42%
    15:00 +34°C° 0,4 mm 2 m/S 727 mmHg 45%
    16:00 +32°C° 0,1 mm 2 m/S 727 mmHg 46%
    17:00 +31°C° 0,1 mm 2 m/S 727 mmHg 48%
    18:00 +31°C° 0,1 mm 1 m/S 727 mmHg 50%
    19:00 +30°C° 0 mm 1 m/S 727 mmHg 51%
    20:00 +29°C° 0 mm 2 m/S 728 mmHg 53%
    21:00 +29°C° 0 mm 2 m/S 728 mmHg 55%
    22:00 +28°C° 0 mm 2 m/S 728 mmHg 58%
    23:00 +28°C° 0 mm 2 m/S 728 mmHg 61%

    Morgen, 25 November, Samstag

    Zeit Temperatur Niederschläge Wind Luftdruck Luftfeuchtigkeit
    00:00 +27°C° 0 mm 2 m/S 729 mmHg 64%
    01:00 +26°C° 0,2 mm 1 m/S 728 mmHg 68%
    02:00 +26°C° 0,2 mm 1 m/S 728 mmHg 73%
    03:00 +25°C° 0,2 mm 1 m/S 728 mmHg 77%
    04:00 +25°C° 0,1 mm 1 m/S 728 mmHg 78%
    05:00 +25°C° 0,1 mm 1 m/S 729 mmHg 78%
    06:00 +25°C° 0,1 mm 2 m/S 729 mmHg 78%
    07:00 +27°C° 0 mm 2 m/S 730 mmHg 68%
    08:00 +29°C° 0 mm 2 m/S 730 mmHg 58%
    09:00 +31°C° 0 mm 3 m/S 730 mmHg 48%
    10:00 +34°C° 0 mm 3 m/S 730 mmHg 44%
    11:00 +35°C° 0 mm 3 m/S 729 mmHg 39%
    12:00 +36°C° 0 mm 3 m/S 729 mmHg 35%
    13:00 +37°C° 0 mm 3 m/S 728 mmHg 34%
    14:00 +37°C° 0 mm 3 m/S 727 mmHg 32%
    15:00 +37°C° 0 mm 3 m/S 726 mmHg 31%
    16:00 +36°C° 0 mm 2 m/S 726 mmHg 33%
    17:00 +34°C° 0 mm 2 m/S 726 mmHg 35%
    18:00 +32°C° 0 mm 1 m/S 726 mmHg 38%
    19:00 +31°C° 0 mm 2 m/S 727 mmHg 40%
    20:00 +30°C° 0 mm 2 m/S 727 mmHg 42%
    21:00 +29°C° 0 mm 2 m/S 728 mmHg 45%
    22:00 +29°C° 0 mm 2 m/S 728 mmHg 49%
    23:00 +28°C° 0 mm 2 m/S 728 mmHg 54%

    übermorgen, 26 November, Sonntag

    Zeit Temperatur Niederschläge Wind Luftdruck Luftfeuchtigkeit
    00:00 +27°C° 0 mm 2 m/S 728 mmHg 59%
    01:00 +27°C° 0 mm 2 m/S 728 mmHg 62%
    02:00 +26°C° 0 mm 2 m/S 728 mmHg 66%
    03:00 +26°C° 0 mm 1 m/S 728 mmHg 70%
    04:00 +26°C° 0 mm 2 m/S 728 mmHg 71%
    05:00 +26°C° 0 mm 2 m/S 729 mmHg 72%
    06:00 +26°C° 0 mm 2 m/S 729 mmHg 72%
    07:00 +28°C° 0 mm 2 m/S 730 mmHg 63%
    08:00 +30°C° 0 mm 2 m/S 730 mmHg 53%
    09:00 +32°C° 0 mm 2 m/S 731 mmHg 44%
    10:00 +35°C° 0 mm 2 m/S 730 mmHg 39%
    11:00 +36°C° 0 mm 2 m/S 730 mmHg 34%
    12:00 +38°C° 0 mm 2 m/S 729 mmHg 29%
    13:00 +38°C° 0 mm 2 m/S 728 mmHg 28%
    14:00 +38°C° 0 mm 2 m/S 727 mmHg 27%
    15:00 +37°C° 0 mm 2 m/S 726 mmHg 26%
    16:00 +36°C° 0 mm 2 m/S 726 mmHg 28%
    17:00 +33°C° 0 mm 1 m/S 726 mmHg 30%
    18:00 +32°C° 0 mm 1 m/S 726 mmHg 32%
    19:00 +31°C° 0 mm 1 m/S 727 mmHg 33%
    20:00 +30°C° 0 mm 1 m/S 727 mmHg 34%
    21:00 +30°C° 0 mm 1 m/S 728 mmHg 35%
    22:00 +29°C° 0 mm 1 m/S 728 mmHg 41%
    23:00 +28°C° 0 mm 1 m/S 728 mmHg 46%

    27 November, Montag

    Zeit Temperatur Niederschläge Wind Luftdruck Luftfeuchtigkeit
    00:00 +28°C° 0 mm 2 m/S 728 mmHg 51%
    01:00 +27°C° 0 mm 2 m/S 728 mmHg 58%
    02:00 +26°C° 0 mm 2 m/S 728 mmHg 66%
    03:00 +25°C° 0 mm 1 m/S 727 mmHg 73%
    04:00 +25°C° 0 mm 2 m/S 728 mmHg 73%
    05:00 +25°C° 0 mm 2 m/S 728 mmHg 74%
    06:00 +25°C° 0 mm 2 m/S 729 mmHg 75%
    07:00 +28°C° 0 mm 2 m/S 729 mmHg 65%
    08:00 +30°C° 0 mm 2 m/S 730 mmHg 54%
    09:00 +32°C° 0 mm 2 m/S 730 mmHg 44%
    10:00 +35°C° 0 mm 2 m/S 730 mmHg 38%
    11:00 +37°C° 0 mm 2 m/S 729 mmHg 33%
    12:00 +39°C° 0 mm 2 m/S 729 mmHg 27%
    13:00 +39°C° 0 mm 2 m/S 728 mmHg 26%
    14:00 +39°C° 0 mm 2 m/S 727 mmHg 26%
    15:00 +39°C° 0 mm 2 m/S 726 mmHg 25%
    16:00 +37°C° 0 mm 2 m/S 726 mmHg 27%
    17:00 +36°C° 0 mm 2 m/S 726 mmHg 29%
    18:00 +33°C° 0 mm 1 m/S 726 mmHg 32%
    19:00 +32°C° 0 mm 1 m/S 727 mmHg 33%
    20:00 +32°C° 0 mm 1 m/S 727 mmHg 35%
    21:00 +31°C° 0 mm 1 m/S 728 mmHg 37%
    22:00 +30°C° 0 mm 1 m/S 728 mmHg 42%
    23:00 +30°C° 0 mm 2 m/S 728 mmHg 46%

    28 November, Dienstag

    Zeit Temperatur Niederschläge Wind Luftdruck Luftfeuchtigkeit
    00:00 +29°C° 0 mm 2 m/S 728 mmHg 50%
    01:00 +28°C° 0 mm 1 m/S 728 mmHg 56%
    02:00 +27°C° 0 mm 1 m/S 728 mmHg 61%
    03:00 +26°C° 0 mm 1 m/S 728 mmHg 66%
    04:00 +26°C° 0 mm 1 m/S 728 mmHg 67%
    05:00 +26°C° 0 mm 1 m/S 729 mmHg 69%
    06:00 +26°C° 0 mm 2 m/S 729 mmHg 70%
    07:00 +28°C° 0 mm 2 m/S 730 mmHg 62%
    08:00 +30°C° 0 mm 2 m/S 730 mmHg 54%
    09:00 +34°C° 0 mm 2 m/S 730 mmHg 46%
    10:00 +35°C° 0 mm 2 m/S 729 mmHg 42%
    11:00 +36°C° 0 mm 2 m/S 729 mmHg 38%
    12:00 +38°C° 0 mm 2 m/S 728 mmHg 33%
    13:00 +38°C° 0 mm 2 m/S 727 mmHg 32%
    14:00 +38°C° 0 mm 2 m/S 727 mmHg 30%
    15:00 +37°C° 0 mm 1 m/S 726 mmHg 28%
    16:00 +36°C° 0 mm 1 m/S 726 mmHg 30%
    17:00 +34°C° 0 mm 1 m/S 726 mmHg 31%
    18:00 +33°C° 0 mm 1 m/S 726 mmHg 33%
    19:00 +32°C° 0 mm 1 m/S 727 mmHg 33%
    20:00 +31°C° 0 mm 1 m/S 727 mmHg 34%
    21:00 +30°C° 0 mm 1 m/S 727 mmHg 34%
    22:00 +30°C° 0 mm 1 m/S 727 mmHg 39%
    23:00 +29°C° 0 mm 2 m/S 727 mmHg 43%

    29 November, Mittwoch

    Zeit Temperatur Niederschläge Wind Luftdruck Luftfeuchtigkeit
    00:00 +29°C° 0 mm 2 m/S 727 mmHg 47%
    01:00 +28°C° 0 mm 2 m/S 727 mmHg 56%
    02:00 +27°C° 0 mm 2 m/S 727 mmHg 65%
    03:00 +26°C° 0 mm 2 m/S 727 mmHg 74%
    04:00 +26°C° 0 mm 2 m/S 728 mmHg 74%
    05:00 +26°C° 0 mm 2 m/S 728 mmHg 74%
    06:00 +26°C° 0 mm 2 m/S 728 mmHg 74%
    07:00 +28°C° 0 mm 2 m/S 729 mmHg 64%
    08:00 +30°C° 0 mm 3 m/S 729 mmHg 53%
    09:00 +33°C° 0 mm 3 m/S 729 mmHg 43%
    10:00 +35°C° 0 mm 3 m/S 728 mmHg 37%
    11:00 +37°C° 0 mm 3 m/S 728 mmHg 32%
    12:00 +39°C° 0 mm 3 m/S 727 mmHg 27%
    13:00 +39°C° 0 mm 3 m/S 726 mmHg 26%
    14:00 +39°C° 0 mm 3 m/S 725 mmHg 24%
    15:00 +39°C° 0 mm 3 m/S 725 mmHg 23%
    16:00 +38°C° 0 mm 2 m/S 725 mmHg 26%
    17:00 +36°C° 0 mm 2 m/S 725 mmHg 29%
    18:00 +34°C° 0 mm 2 m/S 725 mmHg 31%
    19:00 +32°C° 0 mm 2 m/S 725 mmHg 33%
    20:00 +31°C° 0 mm 2 m/S 726 mmHg 35%
    21:00 +30°C° 0 mm 2 m/S 726 mmHg 36%
    22:00 +30°C° 0 mm 2 m/S 726 mmHg 45%
    23:00 +29°C° 0 mm 3 m/S 726 mmHg 53%
    Mehr zeigen